Location: Rounton
(54.4000°N, 1.3500°W)
Time: 18:25:05
(UTC+01:00)

S-56A Canister/Altair - Pass Details

Date: 15 September 2024
Orbit: 636 x 2487 km, 38.9° (Epoch: 06 October)

Event Time Altitude Azimuth Distance (km) Brightness Sun altitude
Rises 20:28:30 0° 225° (SW) 3,401 11.2 -10.4°
Reaches altitude 10° 20:31:17 10° 210° (SSW) 2,673 10.4 -10.8°
Maximum altitude 20:36:04 22° 161° (SSE) 2,295 9.6 -11.5°
Enters shadow 20:40:37 14° 123° (ESE) 3,135 10.0 -12.1°
Drops below altitude 10° 20:42:19 10° 116° (ESE) 3,601 - -12.3°
Sets 20:46:49 0° 103° (ESE) 4,952 - -12.9°
